User: anonymous   Login
Location: Fort Frances
(48.6170°N, 93.4170°W)
Time: 19:38:48
(UTC-06:00)
Language:

Iridium 53 - Orbit

View from above orbital plane
View from above orbital plane
View from above satellite
View from above satellite

Ground track
Ground track

The orbit data is extracted from the following two-line orbital elements,

1 25173U 98010E   14353.54188242  .00000424  00000-0  14446-3 0   775
2 25173 086.3952 010.9920 0002162 108.4567 005.0886 14.34219142881247
Epoch (UTC): 19 December 2014 13:00:18
Eccentricity: 0.0002162
inclination: 86.3952°
perigee height: 776 km
apogee height: 779 km
right ascension of ascending node: 10.9920°
argument of perigee: 108.4567°
revolutions per day: 14.34219142
mean anomaly at epoch: 5.0886°
orbit number at epoch: 88124

The dashed part of the orbit path shows where the satellite is in the earth's shadow,  

DLR